EW6014 Weather Reports


time (UTC)temp
C
wind
direction
speed
KPH
gust
KPH
rain 1hr
cm
rain 24hr
cm
rain mn
cm
humidity
%
barometer
mb
20260906120034 26 0 0.0 1.6 0.00 0.00 0.00 94 1010.4
20260906120030 26 36 0.0 1.6 0.00 0.00 0.00 95 1009.6
20260906114546 26 0 0.0 3.2 0.00 0.00 0.00 94 1010.5
20260906114535 26 54 0.0 3.2 0.00 0.00 0.00 95 1009.6
20260906113050 26 0 0.0 4.8 0.00 0.00 0.00 94 1010.1
20260906113029 26 52 0.0 4.8 0.00 0.00 0.00 95 1009.3
20260906111533 26 0 0.0 3.2 0.00 0.00 0.00 94 1010.1
20260906111528 26 53 0.0 3.2 0.00 0.00 0.00 95 1009.1
20260906110036 26 0 0.0 1.6 0.00 0.00 0.00 94 1009.9
20260906110028 26 53 0.0 1.6 0.00 0.00 0.00 95 1009.0
20260906104532 26 0 0.0 3.2 0.00 0.00 0.00 94 1009.9
20260906104527 26 53 0.0 1.6 0.00 0.00 0.00 95 1008.8
20260906103035 26 0 0.0 4.8 0.00 0.00 0.00 94 1009.6
20260906103026 26 51 0.0 4.8 0.00 0.00 0.00 95 1008.8
20260906101537 26 53 0.0 1.6 0.00 0.00 0.00 94 1009.5
20260906101526 26 54 0.0 3.2 0.00 0.00 0.00 95 1008.7
20260906100033 26 0 0.0 0.0 0.00 0.00 0.00 94 1009.6
20260906100024 26 55 0.0 0.0 0.00 0.00 0.00 95 1008.6
20260906094535 26 0 0.0 0.0 0.00 0.00 0.00 94 1009.5
20260906094525 26 55 0.0 0.0 0.00 0.00 0.00 94 1008.5
20260906093040 26 53 0.0 0.0 0.00 0.00 0.00 94 1008.4
20260906093037 26 0 0.0 0.0 0.00 0.00 0.00 94 1009.2
20260906091550 26 0 0.0 0.0 0.00 0.00 0.00 93 1009.1
20260906091524 26 50 0.0 0.0 0.00 0.00 0.00 94 1008.3
20260906090036 26 0 0.0 0.0 0.00 0.00 0.00 93 1009.4
20260906090022 26 50 0.0 0.0 0.00 0.00 0.00 94 1008.5
20260906084537 27 0 0.0 0.0 0.00 0.00 0.00 93 1009.6
20260906084522 27 34 0.0 0.0 0.00 0.00 0.00 93 1008.7
20260906083036 26 0 0.0 0.0 0.00 0.00 0.00 93 1009.3
20260906083022 26 49 0.0 0.0 0.00 0.00 0.00 93 1008.4
20260906081543 27 0 0.0 0.0 0.00 0.00 0.00 92 1009.5
20260906081536 27 49 0.0 0.0 0.00 0.00 0.00 93 1008.6
20260906080034 27 0 0.0 0.0 0.00 0.00 0.00 92 1009.6
20260906080018 27 50 0.0 0.0 0.00 0.00 0.00 92 1008.7
20260906074541 27 0 0.0 0.0 0.00 0.00 0.00 92 1009.6
20260906074516 27 360 0.0 0.0 0.00 0.00 0.00 92 1008.7
20260906073033 27 0 0.0 0.0 0.00 0.00 0.00 91 1009.7
20260906073031 27 53 0.0 0.0 0.00 0.00 0.00 92 1008.9
20260906071538 27 0 0.0 0.0 0.00 0.00 0.00 91 1009.7
20260906071514 27 55 0.0 0.0 0.00 0.00 0.00 91 1008.8
20260906070036 27 0 0.0 0.0 0.00 0.00 0.00 91 1009.7
20260906070015 27 53 0.0 0.0 0.00 0.00 0.00 91 1008.8
20260906064533 27 0 0.0 1.6 0.00 0.00 0.00 90 1009.7
20260906064512 27 51 0.0 1.6 0.00 0.00 0.00 91 1008.8
20260906063032 27 0 0.0 1.6 0.00 0.00 0.00 90 1009.7
20260906063012 27 54 0.0 0.0 0.00 0.00 0.00 91 1008.7
20260906061538 27 0 0.0 0.0 0.00 0.00 0.00 90 1009.7
20260906061511 27 51 0.0 0.0 0.00 0.00 0.00 90 1008.8
20260906060036 27 0 0.0 1.6 0.00 0.00 0.00 90 1009.7
20260906060009 27 48 0.0 0.0 0.00 0.00 0.00 90 1008.8
20260906054536 27 0 0.0 1.6 0.00 0.00 0.00 89 1009.7
20260906054512 27 53 0.0 1.6 0.00 0.00 0.00 90 1008.8
20260906053035 27 0 0.0 1.6 0.00 0.00 0.00 89 1010.0
20260906053007 27 55 0.0 1.6 0.00 0.00 0.00 89 1009.1
20260906051539 27 0 0.0 0.0 0.00 0.00 0.00 89 1010.2
20260906051503 27 53 0.0 0.0 0.00 0.00 0.00 89 1009.4
20260906050044 27 0 0.0 0.0 0.00 0.00 0.00 88 1010.5
20260906050002 27 54 0.0 0.0 0.00 0.00 0.00 89 1009.6
20260906044537 27 51 0.0 0.0 0.00 0.00 0.00 89 1010.4
20260906044501 27 51 0.0 0.0 0.00 0.00 0.00 89 1009.6
20260906043111 28 53 0.0 0.0 0.00 0.00 0.00 89 1009.8
20260906043035 28 0 0.0 0.0 0.00 0.00 0.00 88 1010.6
20260906041559 28 54 0.0 0.0 0.00 0.00 0.00 88 1009.8
20260906041536 28 0 0.0 0.0 0.00 0.00 0.00 88 1010.7
20260906040113 28 48 0.0 3.2 0.00 0.00 0.00 88 1009.8
20260906040037 28 0 0.0 3.2 0.00 0.00 0.00 87 1010.6
20260906034556 28 51 0.0 0.0 0.00 0.00 0.00 87 1009.7
20260906034535 28 0 0.0 3.2 0.00 0.00 0.00 87 1010.6
20260906033057 28 360 0.0 3.2 0.00 0.00 0.00 87 1010.0
20260906033045 28 0 0.0 3.2 0.00 0.00 0.00 87 1010.9
20260906031603 28 81 0.0 6.4 0.00 0.00 0.00 87 1010.2
20260906031539 28 0 0.0 6.4 0.00 0.00 0.00 87 1011.1
20260906030106 28 95 0.0 9.7 0.00 0.00 0.00 87 1009.7
20260906030032 28 0 0.0 9.7 0.00 0.00 0.00 86 1010.5
20260906024554 28 121 0.0 11.3 0.00 0.00 0.00 86 1009.3
20260906024535 28 0 0.0 11.3 0.00 0.00 0.00 86 1010.3
20260906023111 28 107 0.0 3.2 0.00 0.00 0.00 86 1009.0
20260906023036 28 0 0.0 3.2 0.00 0.00 0.00 86 1009.9
20260906021553 28 84 0.0 6.4 0.00 0.00 0.00 86 1009.2
20260906021536 28 0 0.0 6.4 0.00 0.00 0.00 85 1010.2
20260906020051 28 109 0.0 1.6 0.00 0.00 0.00 85 1009.5
20260906020039 28 0 0.0 9.7 0.00 0.00 0.00 84 1010.5
20260906014608 28 111 0.0 4.8 0.00 0.00 0.00 84 1009.6
20260906014537 28 0 0.0 4.8 0.00 0.00 0.00 84 1010.4
20260906013054 28 109 0.0 9.7 0.00 0.00 0.00 84 1009.4
20260906013037 28 111 0.0 9.7 0.00 0.00 0.00 83 1010.3
20260906011555 28 360 0.0 3.2 0.00 0.00 0.00 83 1009.2
20260906011539 28 360 0.0 3.2 0.00 0.00 0.00 82 1010.1
20260906010050 28 90 0.0 1.6 0.00 0.00 0.00 82 1009.3
20260906010038 28 0 0.0 6.4 0.00 0.00 0.00 82 1010.3
20260906004600 29 57 0.0 3.2 0.00 0.00 0.00 82 1009.6
20260906004537 29 360 0.0 3.2 0.00 0.00 0.00 81 1010.5
20260906003053 29 360 0.0 1.6 0.00 0.00 0.00 81 1009.6
20260906003033 29 0 0.0 1.6 0.00 0.00 0.00 80 1010.6
20260906001547 29 92 0.0 3.2 0.00 0.00 0.00 80 1009.8
20260906001535 29 0 0.0 3.2 0.00 0.00 0.00 80 1010.7
20260906000054 29 101 0.0 1.6 0.00 0.00 0.00 79 1009.6
20260906000037 29 0 0.0 4.8 0.00 0.00 0.00 79 1010.6
20260905234554 30 117 0.0 3.2 0.00 0.00 0.00 78 1009.4
20260905234537 30 0 0.0 6.4 0.00 0.00 0.00 78 1010.3
20260905233046 30 98 0.0 3.2 0.00 0.00 0.00 76 1009.5
20260905233042 30 0 0.0 3.2 0.00 0.00 0.00 76 1010.3
20260905231546 30 96 0.0 6.4 0.00 0.00 0.00 74 1009.1
20260905231533 30 0 0.0 6.4 0.00 0.00 0.00 73 1010.1
20260905230045 30 360 0.0 4.8 0.00 0.00 0.00 73 1009.0
20260905230040 30 0 0.0 4.8 0.00 0.00 0.00 73 1009.8
20260905224559 30 360 0.0 3.2 0.00 0.00 0.00 73 1009.1
20260905224549 30 0 0.0 8.0 0.00 0.00 0.00 73 1010.0
20260905223044 30 116 0.0 9.7 0.00 0.00 0.00 73 1009.1
20260905223033 30 0 0.0 9.7 0.00 0.00 0.00 72 1009.9
20260905221543 31 108 0.0 4.8 0.00 0.00 0.00 73 1009.1
20260905221534 31 0 0.0 4.8 0.00 0.00 0.00 73 1009.9
20260905220043 31 360 3.2 9.7 0.00 0.00 0.00 72 1009.3
20260905220039 31 360 1.6 11.3 0.00 0.00 0.00 72 1010.2
20260905214542 31 360 0.0 16.1 0.00 0.00 0.00 72 1009.2
20260905214532 31 0 0.0 16.1 0.00 0.00 0.00 72 1010.0
20260905213041 31 57 0.0 9.7 0.00 0.00 0.00 72 1009.2
20260905213035 31 0 0.0 9.7 0.00 0.00 0.00 71 1009.9
20260905211542 31 360 0.0 8.0 0.00 0.00 0.00 72 1009.1
20260905211534 31 360 0.0 8.0 0.00 0.00 0.00 71 1010.0
20260905210040 31 360 0.0 6.4 0.00 0.00 0.00 71 1009.1
20260905210035 31 0 0.0 6.4 0.00 0.00 0.00 71 1010.0
20260905204540 31 360 0.0 3.2 0.00 0.00 0.00 72 1008.8
20260905204535 31 360 0.0 8.0 0.00 0.00 0.00 71 1009.7
20260905203040 31 0 0.0 6.4 0.00 0.00 0.00 71 1009.5
20260905201541 31 360 1.6 11.3 0.00 0.00 0.00 69 1009.7
20260905201539 31 360 1.6 9.7 0.00 0.00 0.00 70 1008.7
20260905200049 31 360 0.0 8.0 0.00 0.00 0.00 69 1008.8
20260905200045 31 360 0.0 4.8 0.00 0.00 0.00 69 1009.7
20260905194537 31 360 0.0 8.0 0.00 0.00 0.00 69 1008.9
20260905194532 31 0 0.0 8.0 0.00 0.00 0.00 69 1009.8
20260905193035 31 360 0.0 6.4 0.00 0.00 0.00 69 1009.1
20260905191537 31 360 0.0 4.8 0.00 0.00 0.00 68 1009.5
20260905190044 31 360 0.0 3.2 0.00 0.00 0.00 69 1009.8
20260905190033 31 0 0.0 3.2 0.00 0.00 0.00 69 1010.6
20260905184536 31 47 0.0 4.8 0.00 0.00 0.00 69 1010.0
20260905183033 31 360 0.0 11.3 0.00 0.00 0.00 67 1011.0
20260905183026 31 88 1.6 11.3 0.00 0.00 0.00 68 1010.2
20260905181548 31 360 1.6 11.3 0.00 0.00 0.00 68 1011.2
20260905181526 31 83 3.2 11.3 0.00 0.00 0.00 69 1010.4
20260905180034 31 110 0.0 14.5 0.00 0.00 0.00 69 1011.6
20260905180023 31 360 1.6 14.5 0.00 0.00 0.00 69 1010.7
20260905174541 31 0 0.0 9.7 0.00 0.00 0.00 68 1011.9
20260905174521 31 114 0.0 6.4 0.00 0.00 0.00 69 1011.0
20260905173035 31 360 0.0 4.8 0.00 0.00 0.00 70 1012.2
20260905173021 31 360 0.0 4.8 0.00 0.00 0.00 71 1011.3
20260905171541 30 0 0.0 6.4 0.00 0.00 0.00 70 1012.3
20260905171518 30 96 0.0 6.4 0.00 0.00 0.00 70 1011.4
20260905170034 31 0 0.0 12.9 0.00 0.00 0.00 69 1012.4
20260905170019 31 360 0.0 12.9 0.00 0.00 0.00 69 1011.5
20260905164537 31 0 0.0 3.2 0.00 0.00 0.00 66 1012.7
20260905164527 31 360 0.0 3.2 0.00 0.00 0.00 66 1011.8
20260905163034 32 0 1.6 6.4 0.00 0.00 0.00 64 1012.8
20260905163017 32 30 0.0 6.4 0.00 0.00 0.00 64 1011.9
20260905161537 32 0 0.0 6.4 0.00 0.00 0.00 64 1012.9
20260905161517 32 360 0.0 6.4 0.00 0.00 0.00 64 1011.9
20260905160014 32 19 1.6 6.4 0.00 0.03 0.00 67 1012.2
20260905154539 31 0 0.0 4.8 0.00 0.03 0.00 67 1013.2
20260905154513 31 18 0.0 4.8 0.00 0.03 0.00 67 1012.2
20260905153036 31 0 0.0 6.4 0.00 0.03 0.00 68 1013.3
20260905153013 31 15 0.0 6.4 0.00 0.03 0.00 68 1012.3
20260905151537 31 15 1.6 8.0 0.00 0.03 0.00 70 1013.5
20260905151510 31 15 0.0 8.0 0.00 0.03 0.00 71 1012.5
20260905150034 30 15 0.0 8.0 0.00 0.03 0.00 70 1013.5
20260905150007 30 15 0.0 8.0 0.00 0.03 0.00 71 1012.5
20260905144536 30 18 3.2 6.4 0.00 0.03 0.00 73 1013.5
20260905144506 30 15 3.2 6.4 0.00 0.03 0.00 74 1012.6
20260905143036 29 0 0.0 6.4 0.00 0.03 0.00 76 1013.6
20260905143008 29 22 0.0 6.4 0.00 0.03 0.00 76 1012.5
20260905141541 29 23 3.2 6.4 0.00 0.03 0.00 77 1013.6
20260905141502 29 19 3.2 6.4 0.00 0.03 0.00 78 1012.6
20260905140107 28 26 1.6 4.8 0.00 0.03 0.00 81 1012.6
20260905140040 28 25 0.0 4.8 0.00 0.03 0.00 81 1013.6
20260905134557 28 26 0.0 6.4 0.00 0.03 0.00 84 1012.6
20260905134536 28 0 0.0 6.4 0.00 0.03 0.00 84 1013.6
20260905133100 27 25 0.0 4.8 0.00 0.03 0.00 86 1012.7
20260905133034 27 0 0.0 4.8 0.00 0.03 0.00 86 1013.6
20260905131606 26 20 0.0 6.4 0.00 0.03 0.00 89 1012.7
20260905131532 26 0 1.6 6.4 0.00 0.03 0.00 88 1013.7
20260905130053 26 25 0.0 1.6 0.00 0.03 0.00 90 1012.7
20260905130035 26 0 0.0 1.6 0.00 0.03 0.00 90 1013.6
20260905124553 26 24 0.0 3.2 0.00 0.03 0.00 90 1012.6
20260905124541 26 0 0.0 3.2 0.00 0.03 0.00 90 1013.5
20260905123054 26 26 0.0 4.8 0.00 0.03 0.00 90 1012.5
20260905123037 26 0 0.0 4.8 0.00 0.03 0.00 89 1013.5
20260905121554 26 19 0.0 6.4 0.00 0.03 0.00 90 1012.7
20260905121535 26 0 0.0 6.4 0.00 0.03 0.00 89 1013.5